Time,TemperatureF,DewpointF,PressureIn,WindDirection,WindDirectionDegrees,WindSpeedMPH,WindSpeedGustMPH,Humidity,HourlyPrecipIn,Conditions,Clouds,dailyrainin,SoftwareType,DateUTC
2013-03-01 00:00:00,32.8,25.0,29.43,WNW,293,2.7,2.7,73,0.00,,,0.02,WUHU216HW,2013-03-01 05:00:00,
2013-03-01 00:05:00,32.6,25.2,29.43,WSW,248,3.1,3.4,74,0.00,,,0.00,WUHU216HW,2013-03-01 05:05:00,
2013-03-01 00:06:00,32.6,25.2,29.43,WSW,248,2.5,3.4,74,0.00,,,0.00,WUHU216HW,2013-03-01 05:06:00,
2013-03-01 00:11:00,32.8,25.4,29.43,WNW,293,1.1,3.4,74,0.00,,,0.00,WUHU216HW,2013-03-01 05:11:00,
2013-03-01 00:16:00,33.1,25.7,29.43,WSW,248,2.9,2.9,74,0.00,,,0.00,WUHU216HW,2013-03-01 05:16:00,
2013-03-01 00:21:00,33.1,25.7,29.43,WNW,293,2.2,4.9,74,0.00,,,0.00,WUHU216HW,2013-03-01 05:21:00,
2013-03-01 00:26:00,33.3,25.5,29.43,WNW,293,4.0,4.9,73,0.00,,,0.00,WUHU216HW,2013-03-01 05:26:00,
2013-03-01 00:31:00,33.5,26.0,29.43,West,270,2.5,4.5,74,0.00,,,0.00,WUHU216HW,2013-03-01 05:31:00,
2013-03-01 00:36:00,33.5,26.0,29.43,West,270,5.4,5.4,74,0.00,,,0.00,WUHU216HW,2013-03-01 05:36:00,
2013-03-01 00:41:00,33.8,26.3,29.43,SW,225,1.8,5.4,74,0.00,,,0.00,WUHU216HW,2013-03-01 05:41:00,
2013-03-01 00:46:00,34.0,26.5,29.43,WSW,248,2.2,4.7,74,0.00,,,0.00,WUHU216HW,2013-03-01 05:46:00,
2013-03-01 00:51:00,34.2,26.4,29.43,West,270,3.6,4.7,73,0.00,,,0.00,WUHU216HW,2013-03-01 05:51:00,
2013-03-01 00:56:00,34.0,26.2,29.43,WNW,293,2.5,4.9,73,0.00,,,0.00,WUHU216HW,2013-03-01 05:56:00,
2013-03-01 01:01:00,34.2,26.4,29.43,WSW,248,1.1,4.9,73,0.00,,,0.00,WUHU216HW,2013-03-01 06:01:00,
2013-03-01 01:06:00,34.2,26.4,29.43,West,270,3.1,4.0,73,0.00,,,0.00,WUHU216HW,2013-03-01 06:06:00,
2013-03-01 01:11:00,34.4,26.6,29.43,WSW,248,2.2,4.0,73,0.00,,,0.00,WUHU216HW,2013-03-01 06:11:00,
2013-03-01 01:16:00,34.7,26.9,29.43,WNW,293,2.2,2.9,73,0.00,,,0.00,WUHU216HW,2013-03-01 06:16:00,
2013-03-01 01:21:00,34.7,26.9,29.43,West,270,0.7,2.9,73,0.00,,,0.00,WUHU216HW,2013-03-01 06:21:00,
2013-03-01 01:26:00,34.7,26.9,29.43,WNW,293,2.7,2.7,73,0.00,,,0.00,WUHU216HW,2013-03-01 06:26:00,
2013-03-01 01:31:00,34.9,27.1,29.43,West,270,2.5,2.7,73,0.00,,,0.00,WUHU216HW,2013-03-01 06:31:00,
2013-03-01 01:36:00,34.9,27.1,29.43,WSW,248,2.5,2.5,73,0.00,,,0.00,WUHU216HW,2013-03-01 06:36:00,
2013-03-01 01:41:00,34.9,27.1,29.43,SSW,203,1.6,2.5,73,0.00,,,0.00,WUHU216HW,2013-03-01 06:41:00,
2013-03-01 01:46:00,34.7,26.9,29.43,WSW,248,2.7,2.7,73,0.00,,,0.00,WUHU216HW,2013-03-01 06:46:00,
2013-03-01 01:51:00,34.7,26.9,29.43,WSW,248,4.3,4.3,73,0.00,,,0.00,WUHU216HW,2013-03-01 06:51:00,
2013-03-01 01:56:00,34.7,26.9,29.43,SW,225,2.5,4.5,73,0.00,,,0.00,WUHU216HW,2013-03-01 06:56:00,
2013-03-01 02:01:00,34.6,26.7,29.43,West,270,1.8,4.5,73,0.00,,,0.00,WUHU216HW,2013-03-01 07:01:00,
2013-03-01 02:06:00,34.7,26.9,29.43,West,270,3.4,3.8,73,0.00,,,0.00,WUHU216HW,2013-03-01 07:06:00,
2013-03-01 02:11:00,34.9,27.1,29.43,SW,225,1.8,4.0,73,0.00,,,0.00,WUHU216HW,2013-03-01 07:11:00,
2013-03-01 02:16:00,34.9,27.1,29.43,SW,225,3.4,4.0,73,0.00,,,0.00,WUHU216HW,2013-03-01 07:16:00,
2013-03-01 02:21:00,34.9,27.1,29.43,West,270,2.5,3.6,73,0.00,,,0.00,WUHU216HW,2013-03-01 07:21:00,
2013-03-01 02:26:00,34.7,26.9,29.43,West,270,2.9,3.4,73,0.00,,,0.00,WUHU216HW,2013-03-01 07:26:00,
2013-03-01 02:31:00,34.7,26.9,29.43,West,270,3.4,3.4,73,0.00,,,0.00,WUHU216HW,2013-03-01 07:31:00,
2013-03-01 02:36:00,34.6,26.7,29.43,WSW,248,2.7,3.4,73,0.00,,,0.00,WUHU216HW,2013-03-01 07:36:00,
2013-03-01 02:41:00,34.6,26.7,29.43,West,270,2.5,4.0,73,0.00,,,0.00,WUHU216HW,2013-03-01 07:41:00,
2013-03-01 02:46:00,34.6,26.7,29.43,WSW,248,2.5,4.5,73,0.00,,,0.00,WUHU216HW,2013-03-01 07:46:00,
2013-03-01 02:51:00,34.6,26.7,29.43,West,270,3.4,4.5,73,0.00,,,0.00,WUHU216HW,2013-03-01 07:51:00,
2013-03-01 02:56:00,34.6,26.7,29.42,WSW,248,1.1,3.4,73,0.00,,,0.00,WUHU216HW,2013-03-01 07:56:00,
2013-03-01 03:01:00,34.4,26.6,29.43,WSW,248,2.0,2.5,73,0.00,,,0.00,WUHU216HW,2013-03-01 08:01:00,
2013-03-01 03:06:00,34.2,26.4,29.43,West,270,2.2,3.6,73,0.00,,,0.00,WUHU216HW,2013-03-01 08:06:00,
2013-03-01 03:11:00,34.0,26.2,29.43,WNW,293,1.8,4.0,73,0.00,,,0.00,WUHU216HW,2013-03-01 08:11:00,
2013-03-01 03:16:00,33.7,26.2,29.42,SW,225,1.1,4.0,74,0.00,,,0.00,WUHU216HW,2013-03-01 08:16:00,
2013-03-01 03:21:00,33.5,26.0,29.43,SSE,158,0.2,2.2,74,0.00,,,0.00,WUHU216HW,2013-03-01 08:21:00,
2013-03-01 03:26:00,33.5,26.3,29.42,WSW,248,0.2,1.8,75,0.00,,,0.00,WUHU216HW,2013-03-01 08:26:00,
2013-03-01 03:31:00,32.9,25.5,29.43,NW,315,0.4,1.8,74,0.00,,,0.00,WUHU216HW,2013-03-01 08:31:00,
2013-03-01 03:36:00,32.6,25.2,29.42,WNW,293,0.7,1.6,74,0.00,,,0.00,WUHU216HW,2013-03-01 08:36:00,
2013-03-01 03:41:00,32.4,25.7,29.43,West,270,0.0,1.8,76,0.00,,,0.00,WUHU216HW,2013-03-01 08:41:00,
2013-03-01 03:46:00,32.2,25.5,29.43,West,270,0.0,1.8,76,0.00,,,0.00,WUHU216HW,2013-03-01 08:46:00,
2013-03-01 03:51:00,32.0,25.4,29.42,West,270,0.0,0.0,76,0.00,,,0.00,WUHU216HW,2013-03-01 08:51:00,
2013-03-01 03:56:00,31.7,25.0,29.43,WSW,248,0.0,0.0,76,0.00,,,0.00,WUHU216HW,2013-03-01 08:56:00,
2013-03-01 04:01:00,31.3,25.3,29.43,SSE,158,0.0,0.4,78,0.00,,,0.00,WUHU216HW,2013-03-01 09:01:00,
2013-03-01 04:06:00,31.0,24.9,29.43,SE,135,0.0,0.4,78,0.00,,,0.00,WUHU216HW,2013-03-01 09:06:00,
2013-03-01 04:11:00,30.8,24.8,29.43,NE,45,0.2,0.4,78,0.00,,,0.00,WUHU216HW,2013-03-01 09:11:00,
2013-03-01 04:16:00,30.4,24.4,29.43,NNE,23,0.0,0.7,78,0.00,,,0.00,WUHU216HW,2013-03-01 09:16:00,
2013-03-01 04:21:00,30.2,24.5,29.43,NNE,23,0.0,0.7,79,0.00,,,0.00,WUHU216HW,2013-03-01 09:21:00,
2013-03-01 04:26:00,30.2,24.5,29.43,WNW,293,0.4,1.3,79,0.00,,,0.00,WUHU216HW,2013-03-01 09:26:00,
2013-03-01 04:31:00,30.1,24.3,29.43,ENE,68,1.1,1.3,79,0.00,,,0.00,WUHU216HW,2013-03-01 09:31:00,
2013-03-01 04:36:00,29.9,24.1,29.44,East,90,0.4,1.1,79,0.00,,,0.00,WUHU216HW,2013-03-01 09:36:00,
2013-03-01 04:41:00,29.9,24.5,29.44,NE,45,0.0,0.7,80,0.00,,,0.00,WUHU216HW,2013-03-01 09:41:00,
2013-03-01 04:46:00,29.7,24.3,29.44,NNW,338,0.0,0.9,80,0.00,,,0.00,WUHU216HW,2013-03-01 09:46:00,
2013-03-01 04:51:00,29.7,24.3,29.44,NNW,338,1.1,1.1,80,0.00,,,0.00,WUHU216HW,2013-03-01 09:51:00,
2013-03-01 04:56:00,29.7,24.3,29.44,WNW,293,0.7,1.8,80,0.00,,,0.00,WUHU216HW,2013-03-01 09:56:00,
2013-03-01 05:01:00,29.9,24.8,29.44,North,0,1.1,1.8,81,0.00,,,0.00,WUHU216HW,2013-03-01 10:01:00,
2013-03-01 05:06:00,30.6,25.5,29.44,WNW,293,0.4,1.8,81,0.00,,,0.00,WUHU216HW,2013-03-01 10:06:00,
2013-03-01 05:11:00,31.0,25.6,29.44,WNW,293,2.0,2.2,80,0.00,,,0.00,WUHU216HW,2013-03-01 10:11:00,
2013-03-01 05:16:00,31.5,26.1,29.44,NW,315,1.8,3.6,80,0.00,,,0.00,WUHU216HW,2013-03-01 10:16:00,
2013-03-01 05:21:00,32.0,26.9,29.44,West,270,2.2,3.6,81,0.00,,,0.00,WUHU216HW,2013-03-01 10:21:00,
2013-03-01 05:26:00,32.8,27.3,29.44,West,270,2.5,4.7,80,0.00,,,0.00,WUHU216HW,2013-03-01 10:26:00,
2013-03-01 05:31:00,33.1,27.6,29.44,WNW,293,3.4,4.7,80,0.00,,,0.00,WUHU216HW,2013-03-01 10:31:00,
2013-03-01 05:36:00,33.5,27.6,29.44,West,270,3.8,3.8,79,0.00,,,0.00,WUHU216HW,2013-03-01 10:36:00,
2013-03-01 05:41:00,33.7,27.8,29.44,West,270,4.5,4.7,79,0.00,,,0.00,WUHU216HW,2013-03-01 10:41:00,
2013-03-01 05:46:00,34.0,27.8,29.44,West,270,1.8,4.7,78,0.00,,,0.00,WUHU216HW,2013-03-01 10:46:00,
2013-03-01 05:51:00,34.2,28.0,29.44,WSW,248,2.0,2.9,78,0.00,,,0.00,WUHU216HW,2013-03-01 10:51:00,
2013-03-01 05:56:00,34.4,27.8,29.44,WNW,293,2.5,2.9,77,0.00,,,0.00,WUHU216HW,2013-03-01 10:56:00,
2013-03-01 06:01:00,34.4,27.8,29.45,WSW,248,1.8,2.9,77,0.00,,,0.00,WUHU216HW,2013-03-01 11:01:00,
2013-03-01 06:06:00,34.6,27.7,29.45,WSW,248,1.3,2.2,76,0.00,,,0.00,WUHU216HW,2013-03-01 11:06:00,
2013-03-01 06:11:00,34.7,27.9,29.45,West,270,1.8,2.2,76,0.00,,,0.00,WUHU216HW,2013-03-01 11:11:00,
2013-03-01 06:16:00,34.7,27.9,29.46,West,270,0.4,2.0,76,0.00,,,0.00,WUHU216HW,2013-03-01 11:16:00,
2013-03-01 06:21:00,34.9,28.1,29.46,West,270,0.0,2.0,76,0.00,,,0.00,WUHU216HW,2013-03-01 11:21:00,
2013-03-01 06:26:00,34.7,27.9,29.46,WSW,248,1.6,1.6,76,0.00,,,0.00,WUHU216HW,2013-03-01 11:26:00,
2013-03-01 06:31:00,34.7,28.2,29.46,SW,225,0.4,1.6,77,0.00,,,0.00,WUHU216HW,2013-03-01 11:31:00,
2013-03-01 06:36:00,34.6,28.4,29.46,SSE,158,1.6,1.6,78,0.00,,,0.00,WUHU216HW,2013-03-01 11:36:00,
2013-03-01 06:41:00,34.4,28.4,29.46,SSE,158,0.4,1.6,79,0.00,,,0.00,WUHU216HW,2013-03-01 11:41:00,
2013-03-01 06:46:00,34.2,28.0,29.46,SSE,158,0.0,1.3,78,0.00,,,0.00,WUHU216HW,2013-03-01 11:46:00,
2013-03-01 06:51:00,34.0,27.8,29.46,SE,135,0.0,0.0,78,0.00,,,0.00,WUHU216HW,2013-03-01 11:51:00,
2013-03-01 06:56:00,34.0,28.4,29.46,SE,135,0.0,0.0,80,0.00,,,0.00,WUHU216HW,2013-03-01 11:56:00,
2013-03-01 07:01:00,33.8,27.9,29.46,SE,135,0.0,0.0,79,0.00,,,0.00,WUHU216HW,2013-03-01 12:01:00,
2013-03-01 07:06:00,33.8,28.3,29.46,SE,135,0.0,0.0,80,0.00,,,0.00,WUHU216HW,2013-03-01 12:06:00,
2013-03-01 07:11:00,33.8,28.3,29.46,WSW,248,0.0,0.0,80,0.00,,,0.00,WUHU216HW,2013-03-01 12:11:00,
2013-03-01 07:16:00,34.2,28.6,29.47,WSW,248,2.5,2.5,80,0.00,,,0.00,WUHU216HW,2013-03-01 12:16:00,
2013-03-01 07:21:00,34.4,28.8,29.47,West,270,0.4,2.5,80,0.00,,,0.00,WUHU216HW,2013-03-01 12:21:00,
2013-03-01 07:26:00,34.6,28.6,29.47,SSW,203,0.4,2.5,79,0.00,,,0.00,WUHU216HW,2013-03-01 12:26:00,
2013-03-01 07:31:00,34.7,28.8,29.47,South,180,0.9,0.9,79,0.00,,,0.00,WUHU216HW,2013-03-01 12:31:00,
2013-03-01 07:37:00,34.9,29.0,29.47,West,270,0.4,2.5,79,0.00,,,0.00,WUHU216HW,2013-03-01 12:37:00,
2013-03-01 07:42:00,35.1,29.2,29.48,South,180,1.1,2.5,79,0.00,,,0.00,WUHU216HW,2013-03-01 12:42:00,
2013-03-01 07:47:00,35.1,29.2,29.48,WSW,248,0.9,1.1,79,0.00,,,0.00,WUHU216HW,2013-03-01 12:47:00,
2013-03-01 07:52:00,35.3,29.3,29.48,WSW,248,0.7,1.1,79,0.00,,,0.00,WUHU216HW,2013-03-01 12:52:00,
2013-03-01 07:57:00,35.3,29.3,29.48,West,270,0.4,1.1,79,0.00,,,0.00,WUHU216HW,2013-03-01 12:57:00,
2013-03-01 08:02:00,35.6,29.4,29.48,West,270,0.9,1.1,78,0.00,,,0.00,WUHU216HW,2013-03-01 13:02:00,
2013-03-01 08:07:00,36.0,29.4,29.48,West,270,1.1,1.6,77,0.00,,,0.00,WUHU216HW,2013-03-01 13:07:00,
2013-03-01 08:12:00,36.0,29.2,29.48,West,270,2.9,2.9,76,0.00,,,0.00,WUHU216HW,2013-03-01 13:12:00,
2013-03-01 08:17:00,36.4,29.5,29.48,West,270,1.6,2.9,76,0.00,,,0.00,WUHU216HW,2013-03-01 13:17:00,
2013-03-01 08:22:00,36.4,29.5,29.48,West,270,2.2,2.7,76,0.00,,,0.00,WUHU216HW,2013-03-01 13:22:00,
2013-03-01 08:27:00,36.5,30.0,29.48,WSW,248,0.7,2.7,77,0.00,,,0.00,WUHU216HW,2013-03-01 13:27:00,
2013-03-01 08:32:00,36.7,29.9,29.48,WNW,293,0.4,2.5,76,0.00,,,0.00,WUHU216HW,2013-03-01 13:32:00,
2013-03-01 08:37:00,37.1,30.3,29.48,West,270,1.8,1.8,76,0.00,,,0.00,WUHU216HW,2013-03-01 13:37:00,
2013-03-01 08:42:00,37.1,29.9,29.48,WNW,293,0.7,3.4,75,0.00,,,0.00,WUHU216HW,2013-03-01 13:42:00,
2013-03-01 08:47:00,37.3,30.1,29.48,West,270,2.9,3.4,75,0.00,,,0.00,WUHU216HW,2013-03-01 13:47:00,
2013-03-01 08:52:00,37.4,29.9,29.48,WNW,293,1.8,3.4,74,0.00,,,0.00,WUHU216HW,2013-03-01 13:52:00,
2013-03-01 08:57:00,37.8,30.2,29.48,WSW,248,1.8,3.4,74,0.00,,,0.00,WUHU216HW,2013-03-01 13:57:00,
2013-03-01 09:02:00,37.8,30.2,29.48,West,270,2.2,2.5,74,0.00,,,0.00,WUHU216HW,2013-03-01 14:02:00,
2013-03-01 09:07:00,38.0,30.4,29.49,WNW,293,2.5,3.1,74,0.00,,,0.00,WUHU216HW,2013-03-01 14:07:00,
2013-03-01 09:12:00,38.3,30.4,29.48,West,270,2.9,3.1,73,0.00,,,0.00,WUHU216HW,2013-03-01 14:12:00,
2013-03-01 09:17:00,38.5,30.6,29.49,WNW,293,2.7,4.7,73,0.00,,,0.00,WUHU216HW,2013-03-01 14:17:00,
2013-03-01 09:22:00,38.5,30.2,29.49,West,270,5.4,6.5,72,0.00,,,0.00,WUHU216HW,2013-03-01 14:22:00,
2013-03-01 09:27:00,38.7,30.1,29.48,NW,315,3.4,7.2,71,0.00,,,0.00,WUHU216HW,2013-03-01 14:27:00,
2013-03-01 09:32:00,38.9,30.2,29.48,West,270,2.2,7.2,71,0.00,,,0.00,WUHU216HW,2013-03-01 14:32:00,
2013-03-01 09:37:00,39.1,30.4,29.48,West,270,4.7,4.7,71,0.00,,,0.00,WUHU216HW,2013-03-01 14:37:00,
2013-03-01 09:42:00,39.2,30.2,29.48,WSW,248,4.3,4.7,70,0.00,,,0.00,WUHU216HW,2013-03-01 14:42:00,
2013-03-01 09:47:00,39.4,30.1,29.48,WSW,248,3.8,4.7,69,0.00,,,0.00,WUHU216HW,2013-03-01 14:47:00,
2013-03-01 09:52:00,39.6,30.3,29.48,West,270,2.0,4.7,69,0.00,,,0.00,WUHU216HW,2013-03-01 14:52:00,
2013-03-01 09:57:00,40.0,30.6,29.48,WSW,248,5.1,5.4,69,0.00,,,0.00,WUHU216HW,2013-03-01 14:57:00,
2013-03-01 10:02:00,40.1,30.4,29.48,WSW,248,5.1,5.4,68,0.00,,,0.00,WUHU216HW,2013-03-01 15:02:00,
2013-03-01 10:07:00,40.1,30.0,29.48,WSW,248,2.7,5.1,67,0.00,,,0.00,WUHU216HW,2013-03-01 15:07:00,
2013-03-01 10:12:00,40.3,30.2,29.48,West,270,2.9,5.1,67,0.00,,,0.00,WUHU216HW,2013-03-01 15:12:00,
2013-03-01 10:17:00,40.5,30.3,29.48,West,270,6.7,6.7,67,0.00,,,0.00,WUHU216HW,2013-03-01 15:17:00,
2013-03-01 10:22:00,40.7,30.5,29.48,SW,225,4.0,6.7,67,0.00,,,0.00,WUHU216HW,2013-03-01 15:22:00,
2013-03-01 10:26:00,40.5,30.3,29.48,WSW,248,4.0,6.7,67,0.00,,,0.00,WUHU216HW,2013-03-01 15:26:00,
2013-03-01 10:32:00,40.7,30.5,29.48,NW,315,1.8,5.8,67,0.00,,,0.00,WUHU216HW,2013-03-01 15:32:00,
2013-03-01 10:38:00,40.9,30.7,29.48,West,270,1.3,3.1,67,0.00,,,0.00,WUHU216HW,2013-03-01 15:38:00,
2013-03-01 10:43:00,41.2,31.1,29.49,WNW,293,3.6,4.3,67,0.00,,,0.00,WUHU216HW,2013-03-01 15:43:00,
2013-03-01 10:48:00,41.4,30.9,29.48,WNW,293,6.9,6.9,66,0.00,,,0.00,WUHU216HW,2013-03-01 15:48:00,
2013-03-01 10:53:00,41.4,30.9,29.48,West,270,3.6,6.9,66,0.00,,,0.00,WUHU216HW,2013-03-01 15:53:00,
2013-03-01 11:01:00,41.6,30.7,29.48,NW,315,1.8,5.1,65,0.00,,,0.00,WUHU216HW,2013-03-01 16:01:00,
2013-03-01 11:07:00,41.8,30.9,29.48,WNW,293,3.8,6.9,65,0.00,,,0.00,WUHU216HW,2013-03-01 16:07:00,
2013-03-01 11:13:00,41.9,30.6,29.48,WNW,293,4.5,6.9,64,0.00,,,0.00,WUHU216HW,2013-03-01 16:13:00,
2013-03-01 11:18:00,41.9,30.6,29.48,WSW,248,3.1,6.5,64,0.00,,,0.00,WUHU216HW,2013-03-01 16:18:00,
2013-03-01 11:29:00,42.1,30.8,29.48,West,270,5.8,5.8,64,0.00,,,0.00,WUHU216HW,2013-03-01 16:29:00,
2013-03-01 11:34:00,42.3,31.0,29.48,WNW,293,3.4,5.8,64,0.00,,,0.00,WUHU216HW,2013-03-01 16:34:00,
2013-03-01 11:39:00,42.5,30.7,29.48,WSW,248,4.7,5.8,63,0.00,,,0.00,WUHU216HW,2013-03-01 16:39:00,
2013-03-01 11:44:00,42.7,30.9,29.48,West,270,4.9,6.0,63,0.00,,,0.00,WUHU216HW,2013-03-01 16:44:00,
2013-03-01 11:49:00,42.8,31.1,29.48,WNW,293,5.8,6.5,63,0.00,,,0.00,WUHU216HW,2013-03-01 16:49:00,
2013-03-01 11:54:00,42.8,31.1,29.48,West,270,5.1,6.5,63,0.00,,,0.00,WUHU216HW,2013-03-01 16:54:00,
2013-03-01 11:59:00,43.0,31.2,29.48,NW,315,2.0,5.1,63,0.00,,,0.00,WUHU216HW,2013-03-01 16:59:00,
2013-03-01 12:04:00,42.8,30.2,29.48,NW,315,2.2,5.1,61,0.00,,,0.00,WUHU216HW,2013-03-01 17:04:00,
2013-03-01 12:09:00,42.8,30.2,29.48,West,270,5.8,6.3,61,0.00,,,0.00,WUHU216HW,2013-03-01 17:09:00,
2013-03-01 12:14:00,42.8,30.7,29.48,WSW,248,3.4,6.3,62,0.00,,,0.00,WUHU216HW,2013-03-01 17:14:00,
2013-03-01 12:19:00,43.2,30.6,29.48,West,270,6.9,8.5,61,0.00,,,0.00,WUHU216HW,2013-03-01 17:19:00,
2013-03-01 12:24:00,43.4,30.4,29.48,West,270,4.3,8.5,60,0.00,,,0.00,WUHU216HW,2013-03-01 17:24:00,
2013-03-01 12:29:00,43.6,31.0,29.48,WSW,248,10.5,10.5,61,0.00,,,0.00,WUHU216HW,2013-03-01 17:29:00,
2013-03-01 12:34:00,43.6,30.2,29.47,WSW,248,9.2,10.5,59,0.00,,,0.00,WUHU216HW,2013-03-01 17:34:00,
2013-03-01 12:39:00,43.4,30.0,29.47,West,270,3.1,9.2,59,0.00,,,0.00,WUHU216HW,2013-03-01 17:39:00,
2013-03-01 12:44:00,43.6,29.7,29.47,West,270,3.1,6.9,58,0.00,,,0.00,WUHU216HW,2013-03-01 17:44:00,
2013-03-01 12:49:00,43.6,29.7,29.47,West,270,5.8,6.9,58,0.00,,,0.00,WUHU216HW,2013-03-01 17:49:00,
2013-03-01 12:54:00,43.6,30.2,29.47,West,270,5.4,7.4,59,0.00,,,0.00,WUHU216HW,2013-03-01 17:54:00,
2013-03-01 12:59:00,43.7,30.3,29.47,West,270,2.5,7.4,59,0.00,,,0.00,WUHU216HW,2013-03-01 17:59:00,
2013-03-01 13:04:00,43.6,29.3,29.46,West,270,9.2,9.2,57,0.00,,,0.00,WUHU216HW,2013-03-01 18:04:00,
2013-03-01 13:09:00,43.6,29.7,29.46,West,270,4.0,9.2,58,0.00,,,0.00,WUHU216HW,2013-03-01 18:09:00,
2013-03-01 13:14:00,43.7,29.4,29.46,WNW,293,2.5,7.6,57,0.00,,,0.00,WUHU216HW,2013-03-01 18:14:00,
2013-03-01 13:19:00,43.7,29.4,29.46,WNW,293,4.3,7.6,57,0.00,,,0.00,WUHU216HW,2013-03-01 18:19:00,
2013-03-01 13:24:00,43.9,29.6,29.46,WNW,293,4.9,5.4,57,0.00,,,0.00,WUHU216HW,2013-03-01 18:24:00,
2013-03-01 13:29:00,43.6,28.8,29.46,WSW,248,6.3,7.6,56,0.00,,,0.00,WUHU216HW,2013-03-01 18:29:00,
2013-03-01 13:34:00,43.6,28.8,29.46,West,270,5.8,7.6,56,0.00,,,0.00,WUHU216HW,2013-03-01 18:34:00,
2013-03-01 13:39:00,43.6,28.8,29.46,WNW,293,3.6,7.6,56,0.00,,,0.00,WUHU216HW,2013-03-01 18:39:00,
2013-03-01 13:44:00,43.4,28.3,29.46,West,270,8.5,8.5,55,0.00,,,0.00,WUHU216HW,2013-03-01 18:44:00,
2013-03-01 13:49:00,43.2,28.1,29.45,WSW,248,3.8,8.5,55,0.00,,,0.00,WUHU216HW,2013-03-01 18:49:00,
2013-03-01 13:54:00,43.2,28.1,29.46,WNW,293,6.3,8.5,55,0.00,,,0.00,WUHU216HW,2013-03-01 18:54:00,
2013-03-01 13:59:00,43.2,27.6,29.46,NW,315,4.7,8.5,54,0.00,,,0.00,WUHU216HW,2013-03-01 18:59:00,
2013-03-01 14:04:00,43.2,27.6,29.45,WNW,293,2.0,6.0,54,0.00,,,0.00,WUHU216HW,2013-03-01 19:04:00,
2013-03-01 14:09:00,43.4,28.3,29.45,WNW,293,3.4,6.0,55,0.00,,,0.00,WUHU216HW,2013-03-01 19:09:00,
2013-03-01 14:14:00,43.2,28.1,29.45,West,270,2.0,4.7,55,0.00,,,0.00,WUHU216HW,2013-03-01 19:14:00,
2013-03-01 14:19:00,43.2,28.5,29.45,WNW,293,3.6,4.7,56,0.00,,,0.00,WUHU216HW,2013-03-01 19:19:00,
2013-03-01 14:24:00,43.4,28.7,29.45,West,270,1.8,3.8,56,0.00,,,0.00,WUHU216HW,2013-03-01 19:24:00,
2013-03-01 14:29:00,43.2,28.9,29.45,WSW,248,6.0,6.0,57,0.00,,,0.00,WUHU216HW,2013-03-01 19:29:00,
2013-03-01 14:34:00,43.0,28.8,29.45,WSW,248,4.7,6.5,57,0.00,,,0.00,WUHU216HW,2013-03-01 19:34:00,
2013-03-01 14:39:00,42.8,28.6,29.45,WSW,248,2.2,6.5,57,0.00,,,0.00,WUHU216HW,2013-03-01 19:39:00,
2013-03-01 14:44:00,42.8,28.6,29.45,WSW,248,5.6,6.0,57,0.00,,,0.00,WUHU216HW,2013-03-01 19:44:00,
2013-03-01 14:49:00,42.8,28.6,29.45,West,270,6.5,7.8,57,0.00,,,0.00,WUHU216HW,2013-03-01 19:49:00,
2013-03-01 14:54:00,42.8,28.6,29.45,West,270,6.9,7.8,57,0.00,,,0.00,WUHU216HW,2013-03-01 19:54:00,
2013-03-01 14:59:00,42.8,28.6,29.45,WSW,248,4.7,6.9,57,0.00,,,0.00,WUHU216HW,2013-03-01 19:59:00,
2013-03-01 15:04:00,42.8,28.6,29.45,West,270,7.8,7.8,57,0.00,,,0.00,WUHU216HW,2013-03-01 20:04:00,
2013-03-01 15:09:00,42.8,28.6,29.45,West,270,3.4,7.8,57,0.00,,,0.00,WUHU216HW,2013-03-01 20:09:00,
2013-03-01 15:14:00,42.8,28.6,29.45,WSW,248,4.3,5.6,57,0.00,,,0.00,WUHU216HW,2013-03-01 20:14:00,
2013-03-01 15:19:00,42.8,29.0,29.45,West,270,4.5,6.0,58,0.00,,,0.00,WUHU216HW,2013-03-01 20:19:00,
2013-03-01 15:24:00,42.8,28.6,29.45,West,270,3.8,6.0,57,0.00,,,0.00,WUHU216HW,2013-03-01 20:24:00,
2013-03-01 15:29:00,42.8,28.6,29.45,WSW,248,3.8,5.6,57,0.00,,,0.00,WUHU216HW,2013-03-01 20:29:00,
2013-03-01 15:34:00,42.8,28.6,29.45,WSW,248,5.4,6.0,57,0.00,,,0.00,WUHU216HW,2013-03-01 20:34:00,
2013-03-01 15:39:00,42.8,28.2,29.45,WSW,248,5.8,8.5,56,0.00,,,0.00,WUHU216HW,2013-03-01 20:39:00,
2013-03-01 15:44:00,42.8,28.2,29.45,WNW,293,4.3,8.5,56,0.00,,,0.00,WUHU216HW,2013-03-01 20:44:00,
2013-03-01 15:49:00,42.8,27.7,29.45,West,270,6.0,7.4,55,0.00,,,0.00,WUHU216HW,2013-03-01 20:49:00,
2013-03-01 15:54:00,42.8,27.7,29.45,West,270,3.4,7.4,55,0.00,,,0.00,WUHU216HW,2013-03-01 20:54:00,
2013-03-01 15:59:00,43.0,28.4,29.46,West,270,4.5,5.4,56,0.00,,,0.00,WUHU216HW,2013-03-01 20:59:00,
2013-03-01 16:04:00,42.8,27.7,29.45,WNW,293,4.0,5.4,55,0.00,,,0.00,WUHU216HW,2013-03-01 21:04:00,
2013-03-01 16:09:00,42.8,27.3,29.46,West,270,5.8,6.0,54,0.00,,,0.00,WUHU216HW,2013-03-01 21:09:00,
2013-03-01 16:14:00,42.8,27.7,29.46,WNW,293,3.4,6.3,55,0.00,,,0.00,WUHU216HW,2013-03-01 21:14:00,
2013-03-01 16:19:00,42.8,27.7,29.46,West,270,1.8,6.3,55,0.00,,,0.00,WUHU216HW,2013-03-01 21:19:00,
2013-03-01 16:24:00,42.8,28.2,29.46,WNW,293,2.5,2.7,56,0.00,,,0.00,WUHU216HW,2013-03-01 21:24:00,
2013-03-01 16:28:00,42.8,28.2,29.46,West,270,3.4,3.4,56,0.00,,,0.00,WUHU216HW,2013-03-01 21:28:00,
2013-03-01 16:33:00,42.8,28.2,29.46,West,270,3.4,3.4,56,0.00,,,0.00,WUHU216HW,2013-03-01 21:33:00,
2013-03-01 16:38:00,42.8,28.2,29.46,West,270,3.4,3.4,56,0.00,,,0.00,WUHU216HW,2013-03-01 21:38:00,
2013-03-01 16:43:00,42.7,28.5,29.46,West,270,2.2,3.4,57,0.00,,,0.00,WUHU216HW,2013-03-01 21:43:00,
2013-03-01 16:48:00,42.7,28.5,29.46,West,270,2.7,4.3,57,0.00,,,0.00,WUHU216HW,2013-03-01 21:48:00,
2013-03-01 16:53:00,42.5,28.7,29.46,West,270,3.1,4.3,58,0.00,,,0.00,WUHU216HW,2013-03-01 21:53:00,
2013-03-01 16:58:00,42.5,28.7,29.46,NW,315,0.0,3.4,58,0.00,,,0.00,WUHU216HW,2013-03-01 21:58:00,
2013-03-01 17:03:00,42.3,29.0,29.46,NW,315,0.4,2.0,59,0.00,,,0.00,WUHU216HW,2013-03-01 22:03:00,
2013-03-01 17:08:00,42.1,28.8,29.46,NNW,338,0.4,2.0,59,0.00,,,0.00,WUHU216HW,2013-03-01 22:08:00,
2013-03-01 17:13:00,42.1,28.8,29.46,NNW,338,0.0,0.9,59,0.00,,,0.00,WUHU216HW,2013-03-01 22:13:00,
2013-03-01 17:18:00,41.8,28.9,29.46,NNW,338,0.0,0.2,60,0.00,,,0.00,WUHU216HW,2013-03-01 22:18:00,
2013-03-01 17:23:00,41.6,29.5,29.46,NNW,338,0.0,0.0,62,0.00,,,0.00,WUHU216HW,2013-03-01 22:23:00,
2013-03-01 17:28:00,41.4,30.2,29.46,NNW,338,0.0,0.0,64,0.00,,,0.00,WUHU216HW,2013-03-01 22:28:00,
2013-03-01 17:33:00,41.2,30.0,29.47,NNW,338,0.0,0.0,64,0.00,,,0.00,WUHU216HW,2013-03-01 22:33:00,
2013-03-01 17:38:00,40.9,29.6,29.47,NNW,338,0.0,0.0,64,0.00,,,0.00,WUHU216HW,2013-03-01 22:38:00,
2013-03-01 17:43:00,40.7,30.2,29.47,NNW,338,0.0,0.0,66,0.00,,,0.00,WUHU216HW,2013-03-01 22:43:00,
2013-03-01 17:48:00,40.5,30.0,29.47,NNW,338,0.0,0.0,66,0.00,,,0.00,WUHU216HW,2013-03-01 22:48:00,
2013-03-01 17:53:00,40.3,29.8,29.47,NNW,338,0.0,0.0,66,0.00,,,0.00,WUHU216HW,2013-03-01 22:53:00,
2013-03-01 17:58:00,40.1,29.6,29.47,NNW,338,0.0,0.0,66,0.00,,,0.00,WUHU216HW,2013-03-01 22:58:00,
2013-03-01 18:03:00,40.0,29.4,29.48,NNW,338,0.0,0.0,66,0.00,,,0.00,WUHU216HW,2013-03-01 23:03:00,
2013-03-01 18:08:00,40.0,29.8,29.48,NNW,338,0.0,0.0,67,0.00,,,0.00,WUHU216HW,2013-03-01 23:08:00,
2013-03-01 18:13:00,40.0,29.8,29.47,NNW,338,0.0,0.0,67,0.00,,,0.00,WUHU216HW,2013-03-01 23:13:00,
2013-03-01 18:18:00,39.8,29.6,29.47,NNW,338,0.0,0.0,67,0.00,,,0.00,WUHU216HW,2013-03-01 23:18:00,
2013-03-01 18:23:00,39.6,29.4,29.47,NNW,338,0.0,0.0,67,0.00,,,0.00,WUHU216HW,2013-03-01 23:23:00,
2013-03-01 18:28:00,39.4,29.7,29.48,NNW,338,0.0,0.0,68,0.00,,,0.00,WUHU216HW,2013-03-01 23:28:00,
2013-03-01 18:33:00,39.2,29.9,29.49,NNW,338,0.0,0.0,69,0.00,,,0.00,WUHU216HW,2013-03-01 23:33:00,
2013-03-01 18:38:00,39.2,30.2,29.48,NNW,338,0.0,0.0,70,0.00,,,0.00,WUHU216HW,2013-03-01 23:38:00,
2013-03-01 18:43:00,39.1,29.7,29.49,NNW,338,0.0,0.9,69,0.00,,,0.00,WUHU216HW,2013-03-01 23:43:00,
2013-03-01 18:48:00,38.9,29.9,29.49,NNW,338,0.0,0.9,70,0.00,,,0.00,WUHU216HW,2013-03-01 23:48:00,
2013-03-01 18:53:00,38.7,30.1,29.49,NNW,338,0.0,0.4,71,0.00,,,0.00,WUHU216HW,2013-03-01 23:53:00,
2013-03-01 18:58:00,38.5,30.0,29.49,NNW,338,0.0,0.0,71,0.00,,,0.00,WUHU216HW,2013-03-01 23:58:00,
2013-03-01 19:03:00,38.5,30.0,29.50,NNW,338,0.0,0.0,71,0.00,,,0.00,WUHU216HW,2013-03-02 00:03:00,
2013-03-01 19:08:00,38.3,30.1,29.50,NNW,338,0.0,0.0,72,0.00,,,0.00,WUHU216HW,2013-03-02 00:08:00,
2013-03-01 19:13:00,38.2,30.0,29.50,NNW,338,0.0,0.0,72,0.00,,,0.00,WUHU216HW,2013-03-02 00:13:00,
2013-03-01 19:18:00,38.2,30.0,29.50,NNW,338,0.0,0.0,72,0.00,,,0.00,WUHU216HW,2013-03-02 00:18:00,
2013-03-01 19:23:00,38.2,30.0,29.50,NNW,338,0.0,0.0,72,0.00,,,0.00,WUHU216HW,2013-03-02 00:23:00,
2013-03-01 19:28:00,38.0,29.8,29.50,NNW,338,0.0,0.0,72,0.00,,,0.00,WUHU216HW,2013-03-02 00:28:00,
2013-03-01 19:33:00,38.0,31.1,29.50,NNW,338,0.7,0.9,76,0.00,,,0.00,WUHU216HW,2013-03-02 00:33:00,
2013-03-01 19:38:00,38.0,30.4,29.51,NNW,338,0.0,0.9,74,0.00,,,0.00,WUHU216HW,2013-03-02 00:38:00,
2013-03-01 19:43:00,38.0,30.4,29.50,NNW,338,0.0,0.4,74,0.00,,,0.00,WUHU216HW,2013-03-02 00:43:00,
2013-03-01 19:48:00,37.8,30.2,29.51,NNW,338,0.0,0.0,74,0.00,,,0.00,WUHU216HW,2013-03-02 00:48:00,
2013-03-01 19:53:00,37.8,30.2,29.50,NNW,338,0.0,0.0,74,0.00,,,0.00,WUHU216HW,2013-03-02 00:53:00,
2013-03-01 19:58:00,37.8,30.2,29.50,NNW,338,0.0,0.0,74,0.00,,,0.00,WUHU216HW,2013-03-02 00:58:00,
2013-03-01 20:03:00,37.8,30.2,29.51,NNW,338,0.0,0.0,74,0.00,,,0.00,WUHU216HW,2013-03-02 01:03:00,
2013-03-01 20:08:00,37.6,30.1,29.50,NNW,338,0.0,0.0,74,0.00,,,0.00,WUHU216HW,2013-03-02 01:08:00,
2013-03-01 20:13:00,37.4,29.9,29.51,NNW,338,0.0,0.0,74,0.00,,,0.00,WUHU216HW,2013-03-02 01:13:00,
2013-03-01 20:18:00,37.4,29.9,29.51,NNW,338,0.0,0.0,74,0.00,,,0.00,WUHU216HW,2013-03-02 01:18:00,
2013-03-01 20:23:00,37.3,29.7,29.51,NW,315,0.7,1.3,74,0.00,,,0.00,WUHU216HW,2013-03-02 01:23:00,
2013-03-01 20:28:00,37.3,30.4,29.51,NW,315,0.4,1.3,76,0.00,,,0.00,WUHU216HW,2013-03-02 01:28:00,
2013-03-01 20:33:00,37.1,30.3,29.51,NW,315,0.0,0.4,76,0.00,,,0.00,WUHU216HW,2013-03-02 01:33:00,
2013-03-01 20:38:00,37.1,30.3,29.51,NW,315,0.0,0.4,76,0.00,,,0.00,WUHU216HW,2013-03-02 01:38:00,
2013-03-01 20:43:00,37.1,30.3,29.51,NW,315,0.0,0.0,76,0.00,,,0.00,WUHU216HW,2013-03-02 01:43:00,
2013-03-01 20:48:00,37.1,30.3,29.51,NW,315,0.0,0.0,76,0.00,,,0.00,WUHU216HW,2013-03-02 01:48:00,
2013-03-01 20:53:00,37.1,30.3,29.51,West,270,2.2,2.2,76,0.00,,,0.00,WUHU216HW,2013-03-02 01:53:00,
2013-03-01 20:58:00,37.1,30.3,29.51,West,270,2.0,2.5,76,0.00,,,0.00,WUHU216HW,2013-03-02 01:58:00,
2013-03-01 21:03:00,37.4,30.2,29.51,WNW,293,1.3,2.5,75,0.00,,,0.00,WUHU216HW,2013-03-02 02:03:00,
2013-03-01 21:08:00,37.8,30.0,29.51,NNE,23,0.9,2.2,73,0.00,,,0.00,WUHU216HW,2013-03-02 02:08:00,
2013-03-01 21:13:00,38.2,29.6,29.52,SE,135,0.0,2.2,71,0.00,,,0.00,WUHU216HW,2013-03-02 02:13:00,
2013-03-01 21:18:00,38.2,29.6,29.52,SE,135,0.2,1.1,71,0.00,,,0.00,WUHU216HW,2013-03-02 02:18:00,
2013-03-01 21:23:00,38.2,29.6,29.51,NW,315,0.0,0.9,71,0.00,,,0.00,WUHU216HW,2013-03-02 02:23:00,
2013-03-01 21:28:00,38.2,29.6,29.52,NW,315,0.4,0.9,71,0.00,,,0.00,WUHU216HW,2013-03-02 02:28:00,
2013-03-01 21:33:00,38.0,29.4,29.52,NW,315,0.0,0.4,71,0.00,,,0.00,WUHU216HW,2013-03-02 02:33:00,
2013-03-01 21:38:00,37.8,29.3,29.52,NW,315,0.0,0.4,71,0.00,,,0.00,WUHU216HW,2013-03-02 02:38:00,
2013-03-01 21:43:00,37.8,29.6,29.53,NW,315,0.0,0.4,72,0.00,,,0.00,WUHU216HW,2013-03-02 02:43:00,
2013-03-01 21:48:00,37.6,29.4,29.52,NW,315,0.0,0.4,72,0.00,,,0.00,WUHU216HW,2013-03-02 02:48:00,
2013-03-01 21:53:00,37.4,29.3,29.52,NW,315,0.0,0.0,72,0.00,,,0.00,WUHU216HW,2013-03-02 02:53:00,
2013-03-01 21:58:00,37.3,29.4,29.52,NW,315,0.0,0.0,73,0.00,,,0.00,WUHU216HW,2013-03-02 02:58:00,
2013-03-01 22:03:00,37.1,29.3,29.52,NW,315,0.0,0.0,73,0.00,,,0.00,WUHU216HW,2013-03-02 03:03:00,
2013-03-01 22:08:00,37.1,29.3,29.53,NW,315,0.0,0.0,73,0.00,,,0.00,WUHU216HW,2013-03-02 03:08:00,
2013-03-01 22:13:00,37.1,29.5,29.53,NW,315,0.0,0.0,74,0.00,,,0.00,WUHU216HW,2013-03-02 03:13:00,
2013-03-01 22:18:00,36.9,29.3,29.53,NW,315,0.0,0.0,74,0.00,,,0.00,WUHU216HW,2013-03-02 03:18:00,
2013-03-01 22:23:00,36.9,29.3,29.53,NW,315,0.0,0.0,74,0.00,,,0.00,WUHU216HW,2013-03-02 03:23:00,
2013-03-01 22:28:00,36.7,29.2,29.53,NW,315,0.0,0.0,74,0.00,,,0.00,WUHU216HW,2013-03-02 03:28:00,
2013-03-01 22:33:00,36.7,29.5,29.53,NW,315,0.0,0.0,75,0.00,,,0.00,WUHU216HW,2013-03-02 03:33:00,
2013-03-01 22:38:00,36.7,29.5,29.53,NW,315,0.0,0.0,75,0.00,,,0.00,WUHU216HW,2013-03-02 03:38:00,
2013-03-01 22:43:00,36.5,29.7,29.52,NW,315,0.0,0.0,76,0.00,,,0.00,WUHU216HW,2013-03-02 03:43:00,
2013-03-01 22:48:00,36.5,29.7,29.52,NW,315,0.2,0.2,76,0.00,,,0.00,WUHU216HW,2013-03-02 03:48:00,
2013-03-01 22:53:00,36.5,29.7,29.51,NW,315,0.4,0.4,76,0.00,,,0.00,WUHU216HW,2013-03-02 03:53:00,
2013-03-01 22:58:00,36.5,29.3,29.52,NW,315,0.0,0.4,75,0.00,,,0.00,WUHU216HW,2013-03-02 03:58:00,
2013-03-01 23:03:00,36.5,29.3,29.52,East,90,0.0,0.2,75,0.00,,,0.00,WUHU216HW,2013-03-02 04:03:00,
2013-03-01 23:08:00,36.5,29.7,29.52,East,90,0.0,0.2,76,0.00,,,0.00,WUHU216HW,2013-03-02 04:08:00,
2013-03-01 23:13:00,36.5,30.0,29.52,ENE,68,0.0,0.0,77,0.00,,,0.00,WUHU216HW,2013-03-02 04:13:00,
2013-03-01 23:18:00,36.5,29.7,29.52,WNW,293,0.0,0.0,76,0.00,,,0.00,WUHU216HW,2013-03-02 04:18:00,
2013-03-01 23:23:00,36.4,29.2,29.52,WNW,293,0.2,0.7,75,0.00,,,0.00,WUHU216HW,2013-03-02 04:23:00,
2013-03-01 23:28:00,36.4,29.2,29.52,WNW,293,0.9,0.9,75,0.00,,,0.00,WUHU216HW,2013-03-02 04:28:00,
2013-03-01 23:33:00,36.4,29.2,29.52,WNW,293,0.0,0.9,75,0.00,,,0.00,WUHU216HW,2013-03-02 04:33:00,
2013-03-01 23:38:00,36.2,29.0,29.52,WNW,293,0.0,0.4,75,0.00,,,0.00,WUHU216HW,2013-03-02 04:38:00,
2013-03-01 23:43:00,36.0,28.8,29.52,WNW,293,0.0,0.0,75,0.00,,,0.00,WUHU216HW,2013-03-02 04:43:00,
2013-03-01 23:48:00,36.0,28.8,29.52,WNW,293,0.0,0.0,75,0.00,,,0.00,WUHU216HW,2013-03-02 04:48:00,
2013-03-01 23:53:00,36.2,29.0,29.52,WNW,293,0.0,0.0,75,0.00,,,0.00,WUHU216HW,2013-03-02 04:53:00,
2013-03-01 23:58:00,36.0,29.2,29.52,WNW,293,0.0,0.0,76,0.00,,,0.00,WUHU216HW,2013-03-02 04:58:00,